"Period start","avg(HW err(1)/warn(2) (#))","avg(Visibility (m))","avg(Weather code (#))","avg(Precip intensity (mm/h))","min(HW err(1)/warn(2) (#))","max(HW err(1)/warn(2) (#))","std(HW err(1)/warn(2) (#))","med(HW err(1)/warn(2) (#))","min(Visibility (m))","max(Visibility (m))","std(Visibility (m))","med(Visibility (m))","min(Weather code (#))","max(Weather code (#))","std(Weather code (#))","med(Weather code (#))","min(Precip intensity (mm/h))","max(Precip intensity (mm/h))","std(Precip intensity (mm/h))","med(Precip intensity (mm/h))"
2014-09-19 00:00:00,2,13116,75,0.03,2,2,0,2,9040,16662,2303,13444,71,77,3,77,0.00,0.05,0.03,0.03
2014-09-19 00:10:00,2,13124,76,0.01,2,2,0,2,10479,15849,1610,13172,71,77,2,77,0.00,0.05,0.02,0.00
2014-09-19 00:20:00,2,14412,76,0.00,2,2,0,2,11347,19922,2504,13588,71,77,2,77,0.00,0.00,0.00,0.00
2014-09-19 00:30:00,2,13257,45,0.02,2,2,0,2,9869,17142,1844,12870,41,77,11,41,0.00,0.05,0.02,0.00
2014-09-19 00:40:00,2,14468,41,0.01,2,2,0,2,12156,21473,2939,12942,41,41,0,41,0.00,0.05,0.02,0.00
2014-09-19 00:50:00,2,12546,71,0.02,2,2,0,2,11274,14378,1198,12286,61,77,6,71,0.00,0.05,0.02,0.00
2014-09-19 01:00:00,2,15045,76,0.03,2,2,0,2,11553,22295,3035,14602,71,77,2,77,0.00,0.05,0.02,0.05
2014-09-19 01:10:00,2,13672,73,0.07,2,2,0,2,11698,18849,1905,13492,71,77,3,71,0.00,0.25,0.06,0.05
2014-09-19 01:20:00,2,17433,71,0.06,2,2,0,2,11056,26111,4070,17848,71,71,0,71,0.00,0.15,0.05,0.05
2014-09-19 01:30:00,2,19306,71,0.06,2,2,0,2,15944,26609,3770,17768,71,71,0,71,0.00,0.35,0.10,0.05
2014-09-19 01:40:00,2,17044,72,0.02,2,2,0,2,11637,21540,3286,16927,71,77,2,71,0.00,0.05,0.02,0.00
2014-09-19 01:50:00,2,14435,76,0.05,2,2,0,2,9004,19106,3508,14658,71,77,2,77,0.00,0.35,0.10,0.00
2014-09-19 02:00:00,2,9876,71,0.11,2,2,0,2,8324,12517,1626,9006,71,71,0,71,0.00,0.35,0.10,0.05
2014-09-19 02:10:00,2,10686,73,0.06,2,2,0,2,8100,13832,1999,10588,71,77,3,71,0.00,0.25,0.07,0.05
2014-09-19 02:20:00,2,12106,75,0.03,2,2,0,2,9325,16201,2006,11552,71,77,3,77,0.00,0.05,0.03,0.03
2014-09-19 02:30:00,2,13103,72,0.11,2,2,0,2,8867,21650,3226,12292,71,77,2,71,0.00,0.35,0.12,0.10
2014-09-19 02:40:00,2,12520,71,0.21,2,2,0,2,9189,14674,1842,12356,71,71,0,71,0.05,0.50,0.13,0.17
2014-09-19 02:50:00,2,22299,73,0.03,2,2,0,2,13649,33316,6087,20825,71,77,3,71,0.00,0.15,0.05,0.00
2014-09-19 03:00:00,2,35438,31,0.00,2,2,0,2,27283,45226,5168,33658,0,77,38,0,0.00,0.00,0.00,0.00
2014-09-19 03:10:00,2,31706,0,0.00,2,2,0,2,13513,50000,12694,32605,0,0,0,0,0.00,0.00,0.00,0.00
2014-09-19 03:20:00,2,26307,64,0.02,2,2,0,2,13475,40871,9499,26898,0,77,22,71,0.00,0.10,0.03,0.00
2014-09-19 03:30:00,2,26177,76,0.01,2,2,0,2,15205,44423,11109,22319,71,77,2,77,0.00,0.05,0.02,0.00
2014-09-19 03:40:00,2,33828,75,0.01,2,2,0,2,20448,40573,7178,34602,71,77,3,77,0.00,0.05,0.02,0.00
2014-09-19 03:50:00,2,33296,46,0.00,2,2,0,2,23633,43934,6903,34970,0,77,38,77,0.00,0.00,0.00,0.00
2014-09-19 04:00:00,2,31288,0,0.00,2,2,0,2,24655,40098,5087,30215,0,0,0,0,0.00,0.00,0.00,0.00
2014-09-19 04:10:00,2,19509,41,0.01,2,2,0,2,13610,23418,3355,19502,41,41,0,41,0.00,0.05,0.02,0.00
2014-09-19 04:20:00,2,13382,47,0.04,2,2,0,2,7742,24282,4702,11558,41,71,12,41,0.00,0.10,0.04,0.05
2014-09-19 04:30:00,2,12764,71,0.02,2,2,0,2,9818,18168,2519,12710,71,71,0,71,0.00,0.05,0.02,0.00
2014-09-19 04:40:00,2,21156,66,0.00,2,2,0,2,16239,25674,3233,21292,41,77,16,77,0.00,0.00,0.00,0.00
2014-09-19 04:50:00,2,17476,41,0.01,2,2,0,2,14984,21033,1957,16404,41,41,0,41,0.00,0.05,0.02,0.00
2014-09-19 05:00:00,2,24042,49,0.00,2,2,0,2,13969,38891,7663,23658,41,61,10,41,0.00,0.00,0.00,0.00
2014-09-19 05:10:00,2,21219,71,0.01,2,2,0,2,14709,26452,3496,21123,61,77,6,71,0.00,0.05,0.02,0.00
2014-09-19 05:20:00,2,19376,75,0.02,2,2,0,2,12102,27003,4645,18194,71,77,3,77,0.00,0.05,0.02,0.00
2014-09-19 05:30:00,2,24165,77,0.03,2,2,0,2,8919,36218,7903,24874,77,77,0,77,0.00,0.30,0.09,0.00
2014-09-19 05:40:00,2,14460,75,0.10,2,2,0,2,11307,16893,1426,14401,71,77,3,77,0.00,0.45,0.15,0.00
2014-09-19 05:50:00,2,18102,76,0.03,2,2,0,2,12477,32453,6081,15406,71,77,2,77,0.00,0.10,0.04,0.00
2014-09-19 06:00:00,2,15886,77,0.00,2,2,0,2,12420,21626,3086,14764,77,77,0,77,0.00,0.00,0.00,0.00
2014-09-19 06:10:00,2,22674,28,0.01,2,2,0,2,12135,38422,8687,19246,0,77,25,40,0.00,0.05,0.02,0.00
2014-09-19 06:20:00,2,26886,68,0.03,2,2,0,2,13450,40376,9434,27747,41,77,14,74,0.00,0.05,0.02,0.05
2014-09-19 06:30:00,2,27624,38,0.01,2,2,0,2,20419,37449,4886,27350,0,77,38,38,0.00,0.10,0.03,0.00
2014-09-19 06:40:00,2,28586,29,0.01,2,2,0,2,17707,41361,7163,27196,0,41,19,41,0.00,0.05,0.02,0.00
2014-09-19 06:50:00,2,43561,44,0.01,2,2,0,2,21709,50000,9530,48968,0,77,36,71,0.00,0.05,0.02,0.00
2014-09-19 07:00:00,2,45346,0,0.00,2,2,0,2,34625,50000,4922,46867,0,0,0,0,0.00,0.00,0.00,0.00
2014-09-19 07:10:00,2,27383,0,0.00,2,2,0,2,16357,45451,8883,26934,0,0,0,0,0.00,0.00,0.00,0.00
2014-09-19 07:20:00,2,40695,0,0.00,2,2,0,2,35371,48266,3673,40278,0,0,0,0,0.00,0.00,0.00,0.00
2014-09-19 07:30:00,2,42708,0,0.00,2,2,0,2,30741,50000,5243,42844,0,0,0,0,0.00,0.00,0.00,0.00
2014-09-19 07:40:00,2,24771,0,0.00,2,2,0,2,17795,32508,4537,24468,0,0,0,0,0.00,0.00,0.00,0.00
2014-09-19 07:50:00,2,29710,0,0.00,2,2,0,2,23786,40821,5005,28780,0,0,0,0,0.00,0.00,0.00,0.00
2014-09-19 08:00:00,2,48716,0,0.00,2,2,0,2,46757,50000,1274,49131,0,0,0,0,0.00,0.00,0.00,0.00
2014-09-19 08:10:00,2,49364,0,0.00,2,2,0,2,44975,50000,1516,50000,0,0,0,0,0.00,0.00,0.00,0.00
2014-09-19 08:20:00,2,49340,0,0.00,2,2,0,2,44930,50000,1505,50000,0,0,0,0,0.00,0.00,0.00,0.00
2014-09-19 08:30:00,2,50000,0,0.00,2,2,0,2,50000,50000,0,50000,0,0,0,0,0.00,0.00,0.00,0.00
2014-09-19 08:40:00,2,50000,0,0.00,2,2,0,2,50000,50000,0,50000,0,0,0,0,0.00,0.00,0.00,0.00
2014-09-19 08:50:00,2,50000,0,0.00,2,2,0,2,50000,50000,0,50000,0,0,0,0,0.00,0.00,0.00,0.00
2014-09-19 09:00:00,2,50000,0,0.00,2,2,0,2,50000,50000,0,50000,0,0,0,0,0.00,0.00,0.00,0.00
2014-09-19 09:10:00,2,48680,0,0.00,2,2,0,2,44964,50000,1957,50000,0,0,0,0,0.00,0.00,0.00,0.00
2014-09-19 09:20:00,2,49809,0,0.00,2,2,0,2,48852,50000,353,50000,0,0,0,0,0.00,0.00,0.00,0.00
2014-09-19 09:30:00,2,50000,0,0.00,2,2,0,2,50000,50000,0,50000,0,0,0,0,0.00,0.00,0.00,0.00
2014-09-19 09:40:00,2,50000,0,0.00,2,2,0,2,50000,50000,0,50000,0,0,0,0,0.00,0.00,0.00,0.00
2014-09-19 09:50:00,2,49850,0,0.00,2,2,0,2,48499,50000,450,50000,0,0,0,0,0.00,0.00,0.00,0.00
2014-09-19 10:00:00,2,47428,0,0.00,2,2,0,2,40626,50000,3092,48917,0,0,0,0,0.00,0.00,0.00,0.00
2014-09-19 10:10:00,2,49608,0,0.00,2,2,0,2,47538,50000,816,50000,0,0,0,0,0.00,0.00,0.00,0.00
2014-09-19 10:20:00,2,50000,0,0.00,2,2,0,2,50000,50000,0,50000,0,0,0,0,0.00,0.00,0.00,0.00
2014-09-19 10:30:00,2,50000,0,0.00,2,2,0,2,50000,50000,0,50000,0,0,0,0,0.00,0.00,0.00,0.00
2014-09-19 10:40:00,2,50000,0,0.00,2,2,0,2,50000,50000,0,50000,0,0,0,0,0.00,0.00,0.00,0.00
2014-09-19 10:50:00,2,50000,0,0.00,2,2,0,2,50000,50000,0,50000,0,0,0,0,0.00,0.00,0.00,0.00
2014-09-19 11:00:00,2,50000,0,0.00,2,2,0,2,50000,50000,0,50000,0,0,0,0,0.00,0.00,0.00,0.00
2014-09-19 11:10:00,2,50000,0,0.00,2,2,0,2,50000,50000,0,50000,0,0,0,0,0.00,0.00,0.00,0.00
2014-09-19 11:20:00,2,50000,0,0.00,2,2,0,2,50000,50000,0,50000,0,0,0,0,0.00,0.00,0.00,0.00
2014-09-19 11:30:00,2,50000,0,0.00,2,2,0,2,50000,50000,0,50000,0,0,0,0,0.00,0.00,0.00,0.00
2014-09-19 11:40:00,2,50000,0,0.00,2,2,0,2,50000,50000,0,50000,0,0,0,0,0.00,0.00,0.00,0.00
2014-09-19 11:50:00,2,50000,0,0.00,2,2,0,2,50000,50000,0,50000,0,0,0,0,0.00,0.00,0.00,0.00
2014-09-19 12:00:00,2,50000,0,0.00,2,2,0,2,50000,50000,0,50000,0,0,0,0,0.00,0.00,0.00,0.00
2014-09-19 12:10:00,2,50000,0,0.00,2,2,0,2,50000,50000,0,50000,0,0,0,0,0.00,0.00,0.00,0.00
2014-09-19 12:20:00,2,50000,0,0.00,2,2,0,2,50000,50000,0,50000,0,0,0,0,0.00,0.00,0.00,0.00
2014-09-19 12:30:00,2,50000,0,0.00,2,2,0,2,50000,50000,0,50000,0,0,0,0,0.00,0.00,0.00,0.00
2014-09-19 12:40:00,2,50000,0,0.00,2,2,0,2,50000,50000,0,50000,0,0,0,0,0.00,0.00,0.00,0.00
2014-09-19 12:50:00,2,50000,0,0.00,2,2,0,2,50000,50000,0,50000,0,0,0,0,0.00,0.00,0.00,0.00
2014-09-19 13:00:00,2,50000,0,0.00,2,2,0,2,50000,50000,0,50000,0,0,0,0,0.00,0.00,0.00,0.00
2014-09-19 13:10:00,2,49747,0,0.00,2,2,0,2,47469,50000,759,50000,0,0,0,0,0.00,0.00,0.00,0.00
2014-09-19 13:20:00,2,50000,0,0.00,2,2,0,2,50000,50000,0,50000,0,0,0,0,0.00,0.00,0.00,0.00
2014-09-19 13:30:00,2,50000,0,0.00,2,2,0,2,50000,50000,0,50000,0,0,0,0,0.00,0.00,0.00,0.00
2014-09-19 13:40:00,2,43010,12,0.03,2,2,0,2,23275,50000,8376,46498,0,41,19,0,0.00,0.30,0.09,0.00
2014-09-19 13:50:00,2,49476,0,0.00,2,2,0,2,46822,50000,1078,50000,0,0,0,0,0.00,0.00,0.00,0.00
2014-09-19 14:00:00,2,49909,0,0.00,2,2,0,2,49091,50000,273,50000,0,0,0,0,0.00,0.00,0.00,0.00
2014-09-19 14:10:00,2,46729,0,0.00,2,2,0,2,41113,50000,3590,48582,0,0,0,0,0.00,0.00,0.00,0.00
2014-09-19 14:20:00,2,41149,37,0.01,2,2,0,2,33459,50000,5799,39935,0,41,12,41,0.00,0.05,0.02,0.00
2014-09-19 14:30:00,2,47398,41,0.00,2,2,0,2,38705,50000,3959,50000,41,41,0,41,0.00,0.00,0.00,0.00
2014-09-19 14:40:00,2,47584,41,0.00,2,2,0,2,40772,50000,2871,48614,41,41,0,41,0.00,0.00,0.00,0.00
2014-09-19 14:50:00,2,49576,16,0.00,2,2,0,2,47269,50000,891,50000,0,41,20,0,0.00,0.00,0.00,0.00
2014-09-19 15:00:00,2,48777,0,0.00,2,2,0,2,44851,50000,1955,50000,0,0,0,0,0.00,0.00,0.00,0.00
2014-09-19 15:10:00,2,24476,45,0.09,2,2,0,2,13079,38073,7787,20978,0,71,26,41,0.00,0.35,0.10,0.05
2014-09-19 15:20:00,2,26604,71,0.03,2,2,0,2,16175,37686,7774,26812,71,71,0,71,0.00,0.15,0.05,0.00
2014-09-19 15:30:00,2,18796,75,0.03,2,2,0,2,10900,39144,7342,17463,71,77,3,77,0.00,0.05,0.03,0.03
2014-09-19 15:40:00,2,6132,74,1.14,2,2,0,2,2010,10921,3333,6338,71,77,3,74,0.05,3.60,1.30,0.48
2014-09-19 15:50:00,2,2486,71,2.08,2,2,0,2,1856,3698,555,2380,71,71,0,71,0.75,3.50,0.79,1.90
2014-09-19 16:00:00,2,4075,71,0.52,2,2,0,2,3270,4818,524,4039,71,71,0,71,0.25,1.05,0.24,0.42
2014-09-19 16:10:00,2,3672,71,0.52,2,2,0,2,3395,4063,202,3650,71,71,0,71,0.35,0.90,0.16,0.45
2014-09-19 16:20:00,2,3997,71,0.81,2,2,0,2,2642,5696,1043,3668,71,71,0,71,0.25,1.55,0.35,0.73
2014-09-19 16:30:00,2,5058,71,0.75,2,2,0,2,4294,5598,330,5057,71,71,0,71,0.35,1.20,0.24,0.78
2014-09-19 16:40:00,2,4745,71,1.02,2,2,0,2,3205,6878,1050,4564,71,71,0,71,0.45,1.60,0.36,1.02
2014-09-19 16:50:00,2,6024,71,0.45,2,2,0,2,4314,9310,1763,5172,71,71,0,71,0.10,0.90,0.24,0.45
2014-09-19 17:00:00,2,14531,71,0.13,2,2,0,2,8934,22255,4571,14462,71,71,0,71,0.00,0.45,0.15,0.08
2014-09-19 17:10:00,2,20930,71,0.02,2,2,0,2,15249,25370,3146,22206,71,71,0,71,0.00,0.05,0.02,0.00
2014-09-19 17:20:00,2,27030,75,0.01,2,2,0,2,21530,31392,3259,27350,71,77,3,77,0.00,0.05,0.02,0.00
2014-09-19 17:30:00,2,25407,41,0.00,2,2,0,2,21571,31586,3108,25060,41,41,0,41,0.00,0.00,0.00,0.00
2014-09-19 17:40:00,2,21812,51,0.01,2,2,0,2,16686,24767,2948,22724,41,77,15,41,0.00,0.05,0.02,0.00
2014-09-19 17:50:00,2,15899,77,0.01,2,2,0,2,12764,20959,2656,15034,77,77,0,77,0.00,0.05,0.02,0.00
2014-09-19 18:00:00,2,17501,70,0.03,2,2,0,2,15953,18954,1067,17550,41,77,14,77,0.00,0.05,0.03,0.03
2014-09-19 18:10:00,2,14583,41,0.07,2,2,0,2,12644,15986,915,14765,41,41,0,41,0.00,0.15,0.04,0.08
2014-09-19 18:20:00,2,13434,50,0.03,2,2,0,2,10465,14720,1340,14149,41,71,14,41,0.00,0.15,0.05,0.00
2014-09-19 18:30:00,2,12091,71,0.04,2,2,0,2,10236,13284,929,12172,71,71,0,71,0.00,0.15,0.06,0.03
2014-09-19 18:40:00,2,17053,75,0.00,2,2,0,2,14687,19261,1412,16875,71,77,3,77,0.00,0.00,0.00,0.00
2014-09-19 18:50:00,2,19812,24,0.00,2,2,0,2,17593,22202,1494,19682,0,77,26,20,0.00,0.00,0.00,0.00
2014-09-19 19:00:00,2,21913,24,0.00,2,2,0,2,18932,25794,2281,21462,0,61,30,0,0.00,0.00,0.00,0.00
2014-09-19 19:10:00,2,20182,46,0.02,2,2,0,2,16188,24865,3064,19553,0,71,20,41,0.00,0.10,0.03,0.00
2014-09-19 19:20:00,2,18976,29,0.01,2,2,0,2,15672,27408,4288,17218,0,41,19,41,0.00,0.05,0.02,0.00
2014-09-19 19:30:00,2,12185,62,0.28,2,2,0,2,5796,14926,2950,13414,41,71,14,71,0.00,1.80,0.52,0.08
2014-09-19 19:40:00,2,11532,71,0.27,2,2,0,2,7521,15446,2468,11897,71,71,0,71,0.00,0.75,0.25,0.15
2014-09-19 19:50:00,2,12420,71,0.21,2,2,0,2,7541,15314,2170,12720,71,71,0,71,0.00,1.25,0.36,0.08
2014-09-19 20:00:00,2,16820,71,0.07,2,2,0,2,10107,23977,4554,16790,71,71,0,71,0.00,0.25,0.08,0.03
2014-09-19 20:10:00,2,29238,22,0.00,2,2,0,2,24256,35180,3715,27426,0,77,33,0,0.00,0.00,0.00,0.00
2014-09-19 20:20:00,2,23318,57,0.01,2,2,0,2,18394,29869,3399,22346,0,71,28,71,0.00,0.05,0.02,0.00
2014-09-19 20:30:00,2,26790,14,0.01,2,2,0,2,17102,37051,6043,26942,0,71,28,0,0.00,0.05,0.02,0.00
2014-09-19 20:40:00,2,18284,71,0.08,2,2,0,2,13655,24193,3328,18614,71,71,0,71,0.00,0.45,0.13,0.05
2014-09-19 20:50:00,2,21686,71,0.04,2,2,0,2,11098,37233,8693,18890,71,71,0,71,0.00,0.20,0.06,0.03
2014-09-19 21:00:00,2,16371,71,0.06,2,2,0,2,11762,23459,3645,15883,71,71,0,71,0.00,0.10,0.04,0.05
2014-09-19 21:10:00,2,23222,71,0.01,2,2,0,2,17396,30529,3662,23044,71,71,0,71,0.00,0.10,0.03,0.00
2014-09-19 21:20:00,2,27213,65,0.01,2,2,0,2,22006,34137,4155,25704,41,77,16,74,0.00,0.05,0.02,0.00
2014-09-19 21:30:00,2,21450,73,0.01,2,2,0,2,16784,25001,2779,21766,71,77,3,71,0.00,0.05,0.02,0.00
2014-09-19 21:40:00,2,28122,76,0.00,2,2,0,2,20406,34851,4574,28320,71,77,2,77,0.00,0.00,0.00,0.00
2014-09-19 21:50:00,2,30331,54,0.00,2,2,0,2,23284,36246,4317,31060,0,77,35,77,0.00,0.00,0.00,0.00
2014-09-19 22:00:00,2,30332,0,0.00,2,2,0,2,23874,36798,3377,30272,0,0,0,0,0.00,0.00,0.00,0.00
2014-09-19 22:10:00,2,30439,0,0.00,2,2,0,2,24401,37943,3698,30346,0,0,0,0,0.00,0.00,0.00,0.00
2014-09-19 22:20:00,2,41053,0,0.00,2,2,0,2,37168,50000,3823,39914,0,0,0,0,0.00,0.00,0.00,0.00
2014-09-19 22:30:00,2,41602,0,0.00,2,2,0,2,35213,48051,4051,43193,0,0,0,0,0.00,0.00,0.00,0.00
2014-09-19 22:40:00,2,36748,0,0.00,2,2,0,2,26323,42808,5016,36219,0,0,0,0,0.00,0.00,0.00,0.00
2014-09-19 22:50:00,2,36379,0,0.00,2,2,0,2,30032,42738,3481,35787,0,0,0,0,0.00,0.00,0.00,0.00
2014-09-19 23:00:00,2,41412,0,0.00,2,2,0,2,33370,47289,4464,40852,0,0,0,0,0.00,0.00,0.00,0.00
2014-09-19 23:10:00,2,43241,0,0.00,2,2,0,2,35647,49805,4556,42853,0,0,0,0,0.00,0.00,0.00,0.00
2014-09-19 23:20:00,2,41201,0,0.00,2,2,0,2,35350,47185,3153,41461,0,0,0,0,0.00,0.00,0.00,0.00
2014-09-19 23:30:00,2,40066,0,0.00,2,2,0,2,32130,46258,3709,40774,0,0,0,0,0.00,0.00,0.00,0.00
2014-09-19 23:40:00,2,37198,0,0.00,2,2,0,2,29873,45010,4287,36562,0,0,0,0,0.00,0.00,0.00,0.00
2014-09-19 23:50:00,2,35807,0,0.00,2,2,0,2,29669,41083,3621,35334,0,0,0,0,0.00,0.00,0.00,0.00
